Home   Weather   Owen Sound   Past weeks

Flag for Canada Past Weather in Owen Sound, Ontario, Canada — Yesterday and Last 2 Weeks

Now
32 °F

Ice fog.


Feels Like: 29 °F
Forecast: 32 / 35 °F
Wind: 3 mph from East

Location: Wiarton

Current Time: Jan 18, 2017 at 1:04:40 am

Latest Report: Jan 18, 2017 at 12:00 am


Visibility: 4 mi

Pressure: 29.83 "Hg

Humidity: 100%

Dew Point: 32 °F

Location of Owen SoundLocation

Past Weather in Owen Sound — Graph

°F

Owen Sound Temperature Yesterday

Maximum temperature yesterday: 34 °F (at 6:00 am)
Minimum temperature yesterday: 25 °F (at 1:00 am)
Average temperature yesterday: 32 °F

High & Low Weather Summary for the Past Weeks

 TemperatureHumidityPressure
High43 °F (Jan 10, 10:00 pm)100% (Jan 3, 12:00 am)30.83 "Hg (Jan 3, 12:00 am)
Low1 °F (Jan 6, 11:00 pm)53% (Jan 13, 3:00 pm)29.27 "Hg (Jan 10, 9:00 pm)
Average24 °F84%30.05 "Hg
* Reported Jan 2 11:00 pm — Jan 17 11:00 pm, Owen Sound, Weather by CustomWeather, © 2017

Note: Actual official high and low records may vary slightly from our data, if they occured in-between our weather recording intervals... More about our weather records

Advertising

Owen Sound Weather History for the Previous 24 Hours

Scroll right to see more
 ConditionsComfort  
Time TempWeatherWind HumidityBarometerVisibility
11:00 pm
Tue, Jan 17
32 °FIce fog.2 mph100%29.83 "Hg4 mi
10:24 pm32 °FIce fog.3 mph100%29.83 "Hg3 mi
10:00 pm32 °FIce fog.5 mph100%29.83 "Hg2 mi
9:00 pm32 °FDrizzle. Low clouds.5 mph100%29.84 "Hg2 mi
8:32 pm32 °FDrizzle. Low clouds.5 mph100%29.84 "Hg4 mi
8:00 pm32 °FLow clouds.6 mph100%29.83 "Hg8 mi
7:00 pm34 °FDrizzle. Low clouds.7 mph93%29.83 "Hg6 mi
6:00 pm34 °FDrizzle. Fog.8 mph100%29.84 "Hg2 mi
5:32 pm32 °FDrizzle. Ice fog.8 mph100%29.84 "Hg3 mi
5:00 pm34 °FLow clouds.8 mph93%29.83 "Hg12 mi
4:00 pm34 °FOvercast.10 mph93%29.82 "Hg12 mi
3:00 pm32 °FLow clouds.10 mph100%29.81 "Hg10 mi
2:40 pm34 °FFog.10 mph93%29.82 "Hg6 mi
1:05 pm34 °FLow clouds.9 mph93%29.86 "Hg10 mi
12:00 pm32 °FLight rain. Ice fog.14 mph100%29.88 "Hg4 mi
11:00 am32 °FLight rain. Ice fog.15 mph100%29.93 "Hg3 mi
10:00 am32 °FLight rain. More clouds than sun.14 mph100%29.95 "Hg8 mi
9:00 am32 °FLight freezing rain. Overcast.13 mph93%29.98 "Hg10 mi
8:00 am32 °FLight freezing rain. Overcast.13 mph80%30.00 "Hg10 mi
7:13 am32 °FLight rain. Overcast.13 mph64%30.01 "Hg15 mi
7:00 am34 °FOvercast.13 mph60%30.02 "Hg15 mi
6:10 am34 °FOvercast.13 mph60%30.05 "Hg15 mi
6:00 am34 °FSleet. Overcast.12 mph60%30.06 "Hg15 mi
5:00 am30 °FOvercast.8 mph59%30.09 "Hg15 mi
4:00 am27 °FOvercast.7 mph69%30.12 "Hg15 mi
3:00 am27 °FOvercast.5 mph69%30.15 "Hg15 mi
2:00 am27 °FOvercast.6 mph64%30.15 "Hg15 mi
1:00 am25 °FPassing clouds.6 mph69%30.17 "Hg15 mi
Weather by CustomWeather, © 2017

See weather overviewHow to use our weather pages